Location: Marcé
(47.5801°N, 0.3280°W)
Time: 20:36:14
(UTC+01:00)

Altair - Pass Details

Date: 14 December 2021
Orbit: 1501 x 1683 km, 47.2° (Epoch: 20 January)

Event Time Altitude Azimuth Distance (km) Brightness Sun altitude
Rises 20:23:02 0° 291° (WNW) 4,715 11.0 -31.4°
Reaches altitude 10° 20:26:28 10° 283° (WNW) 3,707 10.3 -32.0°
Maximum altitude 20:34:28 34° 223° (SW) 2,283 8.6 -33.3°
Enters shadow 20:40:24 17° 170° (S) 3,124 9.0 -34.3°
Drops below altitude 10° 20:42:22 10° 162° (SSE) 3,642 - -34.6°
Sets 20:45:43 0° 154° (SSE) 4,622 - -35.2°
